andens

Untitled

Apr 4th, 2011
49
Never
Not a member of Pastebin yet? Sign Up, it unlocks many cool features!
  1. 17:25:27 T:92057600 M:126705664 NOTICE: -----------------------------------------------------------------------
  2. 17:25:27 T:92057600 M:126705664 NOTICE: Starting XBMC, Platform: Mac OS X (10.4.0 AppleTV2,1). Built on Feb 19 2011 (Git:4b032be)
  3. 17:25:27 T:92057600 M:126705664 NOTICE: special://xbmc/ is mapped to: /Applications/XBMC.frappliance/XBMCData/XBMCHome
  4. 17:25:27 T:92057600 M:126705664 NOTICE: special://xbmcbin/ is mapped to: /Applications/XBMC.frappliance/XBMCData/XBMCHome
  5. 17:25:27 T:92057600 M:126705664 NOTICE: special://masterprofile/ is mapped to: /var/mobile/Library/Preferences/XBMC/userdata
  6. 17:25:27 T:92057600 M:126705664 NOTICE: special://home/ is mapped to: /var/mobile/Library/Preferences/XBMC
  7. 17:25:27 T:92057600 M:126705664 NOTICE: special://temp/ is mapped to: /var/mobile/Library/Preferences/XBMC/temp
  8. 17:25:27 T:92057600 M:126705664 NOTICE: The executable running is: /Applications/XBMC.frappliance/XBMC
  9. 17:25:27 T:92057600 M:126681088 NOTICE: Log File is located: /var/mobile/Library/Preferences/xbmc.log
  10. 17:25:27 T:92057600 M:126681088 NOTICE: -----------------------------------------------------------------------
  11. 17:25:27 T:92057600 M:126681088 NOTICE: load settings...
  12. 17:25:27 T:92057600 M:126676992 NOTICE: special://profile/ is mapped to: special://masterprofile/
  13. 17:25:27 T:92057600 M:126676992 NOTICE: loading special://masterprofile/guisettings.xml
  14. 17:25:27 T:92057600 M:125751296 NOTICE: Getting hardware information now...
  15. 17:25:27 T:92057600 M:125751296 NOTICE: Checking resolution 12
  16. 17:25:27 T:92057600 M:125751296 NOTICE: Loading player core factory settings from special://xbmc/system/playercorefactory.xml.
  17. 17:25:27 T:92057600 M:127770624 NOTICE: Loaded playercorefactory configuration
  18. 17:25:27 T:92057600 M:127770624 NOTICE: Loading player core factory settings from special://masterprofile/playercorefactory.xml.
  19. 17:25:27 T:92057600 M:127770624 NOTICE: special://masterprofile/playercorefactory.xml does not exist. Skipping.
  20. 17:25:27 T:92057600 M:127770624 NOTICE: No advancedsettings.xml to load (special://masterprofile/advancedsettings.xml)
  21. 17:25:27 T:92057600 M:127770624 NOTICE: Default DVD Player: dvdplayer
  22. 17:25:27 T:92057600 M:127770624 NOTICE: Default Video Player: dvdplayer
  23. 17:25:27 T:92057600 M:127770624 NOTICE: Default Audio Player: paplayer
  24. 17:25:27 T:92057600 M:127770624 NOTICE: Loading media sources from special://masterprofile/sources.xml
  25. 17:25:28 T:92057600 M:141680640 NOTICE: GL_VENDOR = Imagination Technologies
  26. 17:25:28 T:92057600 M:141680640 NOTICE: GL_RENDERER = PowerVR SGX 535
  27. 17:25:28 T:92057600 M:141680640 NOTICE: GL_VERSION = OpenGL ES 2.0 IMGSGX535-48.20
  28. 17:25:28 T:92057600 M:141680640 NOTICE: GL_SHADING_LANGUAGE_VERSION = OpenGL ES GLSL ES 1.0
  29. 17:25:28 T:92057600 M:141680640 NOTICE: GL_EXTENSIONS = GL_APPLE_framebuffer_multisample GL_APPLE_rgb_422 GL_APPLE_texture_format_BGRA8888 GL_APPLE_texture_max_level GL_EXT_blend_minmax GL_EXT_discard_framebuffer GL_EXT_read_format_bgra GL_EXT_shader_texture_lod GL_EXT_texture_filter_anisotropic GL_IMG_read_format GL_IMG_texture_compression_pvrtc GL_OES_depth24 GL_OES_depth_texture GL_OES_fbo_render_mipmap GL_OES_mapbuffer GL_OES_packed_depth_stencil GL_OES_rgb8_rgba8 GL_OES_standard_derivatives GL_OES_texture_float GL_OES_texture_half_float GL_OES_vertex_array_object
  30. 17:25:28 T:92057600 M:136785920 NOTICE: initializing playlistplayer
  31. 17:25:28 T:92057600 M:136785920 NOTICE: DONE initializing playlistplayer
  32. 17:25:30 T:92057600 M:136495104 NOTICE: initialize done
  33. 17:25:30 T:92057600 M:136495104 NOTICE: Running the application...
  34. 17:25:30 T:92057600 M:136495104 NOTICE: ES: Starting event server
  35. 17:25:30 T:92057600 M:136486912 NOTICE: starting zeroconf publishing
  36. 17:25:30 T:137490432 M:136482816 NOTICE: ES: Starting UDP Event server on 127.0.0.1:9777
  37. 17:25:30 T:137490432 M:136482816 NOTICE: UDP: Listening on port 9777
  38. 17:25:30 T:148377600 M:136478720 ERROR: JSONRPC Server: Failed to bind serversocket
  39. 17:26:38 T:804675584 M:113999872 WARNING: CreateLoader - Unsupported protocol(addons) in addons://more/executable.tbn
  40. 17:26:41 T:154882048 M:117334016 NOTICE: -->Python Interpreter Initialized<--
  41. 17:26:44 T:154882048 M:109641728 ERROR: Exception in python script's onAction
  42. 17:26:44 T:154882048 M:109637632 NOTICE: Traceback (most recent call last):
  43. 17:26:44 T:154882048 M:109637632 NOTICE: File "/var/mobile/Library/Preferences/XBMC/addons/script.xbmc.debug.log/resources/lib/gui.py", line 239, in onAction
  44. 17:26:44 T:154882048 M:109629440 NOTICE: if ( action.getId() in CANCEL_DIALOG):
  45. 17:26:44 T:154882048 M:109629440 NOTICE: File "/var/mobile/Library/Preferences/XBMC/addons/script.xbmc.debug.log/resources/lib/gui.py", line 27, in onInit
  46. 17:26:44 T:154882048 M:109625344 NOTICE: log_size = os.path.getsize(self.log)
  47. 17:26:44 T:154882048 M:109625344 NOTICE: File "/Applications/XBMC.frappliance/Frameworks/usr/lib/python2.6/genericpath.py", line 49, in getsize
  48. 17:26:44 T:154882048 M:109625344 NOTICE: return os.stat(filename).st_size
  49. 17:26:44 T:154882048 M:109625344 NOTICE: OSError
  50. 17:26:44 T:154882048 M:109625344 NOTICE: :
  51. 17:26:44 T:154882048 M:109625344 NOTICE: [Errno 2] No such file or directory: '/var/mobile/Library/Logs/xbmc.log'
  52. 17:27:02 T:92057600 M:112504832 ERROR: ClearBlock: Trying to clear non existent block /var/mobile/Library/Preferences/XBMC/addons/script.xbmc.debug.log
  53. 17:27:07 T:156651520 M:115511296 NOTICE: -->Python Interpreter Initialized<--
  54. 17:27:07 T:156651520 M:115511296 ERROR: Error Type: <type 'exceptions.SyntaxError'>
  55. 17:27:07 T:156651520 M:115511296 ERROR: Error Contents: ("Non-ASCII character '\\xc3' in file /var/mobile/Library/Preferences/XBMC/addons/plugin.audio.dr.dk.netradio/addon.py on line 18, but no encoding declared; see http://www.python.org/peps/pep-0263.html for details", ('/var/mobile/Library/Preferences/XBMC/addons/plugin.audio.dr.dk.netradio/addon.py', 18, 0, None))
  56. 17:27:07 T:156651520 M:115150848 ERROR: SyntaxError: ("Non-ASCII character '\\xc3' in file /var/mobile/Library/Preferences/XBMC/addons/plugin.audio.dr.dk.netradio/addon.py on line 18, but no encoding declared; see http://www.python.org/peps/pep-0263.html for details", ('/var/mobile/Library/Preferences/XBMC/addons/plugin.audio.dr.dk.netradio/addon.py', 18, 0, None))
  57. 17:27:07 T:92057600 M:115097600 ERROR: GetDirectory - Error getting plugin://plugin.audio.dr.dk.netradio/
  58. 17:27:07 T:92057600 M:115097600 ERROR: CGUIMediaWindow::GetDirectory(plugin://plugin.audio.dr.dk.netradio/) failed
  59. 17:27:14 T:804675584 M:112062464 WARNING: CreateLoader - Unsupported protocol(addons) in addons://more/executable.tbn
  60. 17:27:16 T:155766784 M:115838976 NOTICE: -->Python Interpreter Initialized<--
  61. 17:27:19 T:155766784 M:107991040 ERROR: Exception in python script's onAction
  62. 17:27:19 T:155766784 M:107986944 NOTICE: Traceback (most recent call last):
  63. 17:27:19 T:155766784 M:107986944 NOTICE: File "/var/mobile/Library/Preferences/XBMC/addons/script.xbmc.debug.log/resources/lib/gui.py", line 239, in onAction
  64. 17:27:19 T:155766784 M:107978752 NOTICE: if ( action.getId() in CANCEL_DIALOG):
  65. 17:27:19 T:155766784 M:107978752 NOTICE: File "/var/mobile/Library/Preferences/XBMC/addons/script.xbmc.debug.log/resources/lib/gui.py", line 27, in onInit
  66. 17:27:19 T:155766784 M:107978752 NOTICE: log_size = os.path.getsize(self.log)
  67. 17:27:19 T:155766784 M:107978752 NOTICE: File "/Applications/XBMC.frappliance/Frameworks/usr/lib/python2.6/genericpath.py", line 49, in getsize
  68. 17:27:19 T:155766784 M:107978752 NOTICE: return os.stat(filename).st_size
  69. 17:27:19 T:155766784 M:107978752 NOTICE: OSError
  70. 17:27:19 T:155766784 M:107978752 NOTICE: :
  71. 17:27:19 T:155766784 M:107978752 NOTICE: [Errno 2] No such file or directory: '/var/mobile/Library/Logs/xbmc.log'
  72. 17:27:24 T:155766784 M:108056576 ERROR: Exception in python script's onAction
  73. 17:27:24 T:155766784 M:108056576 NOTICE: Traceback (most recent call last):
  74. 17:27:24 T:155766784 M:108056576 NOTICE: File "/var/mobile/Library/Preferences/XBMC/addons/script.xbmc.debug.log/resources/lib/gui.py", line 239, in onAction
  75. 17:27:24 T:155766784 M:108056576 NOTICE: if ( action.getId() in CANCEL_DIALOG):
  76. 17:27:24 T:155766784 M:108056576 NOTICE: File "/var/mobile/Library/Preferences/XBMC/addons/script.xbmc.debug.log/resources/lib/gui.py", line 209, in onClick
  77. 17:27:24 T:155766784 M:108056576 NOTICE: msg = self.copyToFolder()
  78. 17:27:24 T:155766784 M:108056576 NOTICE: File "/var/mobile/Library/Preferences/XBMC/addons/script.xbmc.debug.log/resources/lib/gui.py", line 154, in copyToFolder
  79. 17:27:24 T:155766784 M:108056576 NOTICE: have_log, msg = self.collect_logs(new_log)
  80. 17:27:24 T:155766784 M:108056576 NOTICE: File "/var/mobile/Library/Preferences/XBMC/addons/script.xbmc.debug.log/resources/lib/gui.py", line 170, in collect_logs
  81. 17:27:24 T:155766784 M:108056576 NOTICE: outfile.write(open(self.log_crash, 'r'+'b').read())
  82. 17:27:24 T:155766784 M:108056576 NOTICE: IOError
  83. 17:27:24 T:155766784 M:108056576 NOTICE: :
  84. 17:27:24 T:155766784 M:108056576 NOTICE: [Errno 2] No such file or directory: ''
  85. 17:27:35 T:92057600 M:111280128 WARNING: CUtil::GetMatchingSource... no matching source found for [Addons]
  86. 17:27:38 T:156037120 M:115175424 NOTICE: -->Python Interpreter Initialized<--
  87. 17:27:38 T:156037120 M:115171328 ERROR: Error Type: <type 'exceptions.SyntaxError'>
  88. 17:27:38 T:156037120 M:115171328 ERROR: Error Contents: ("Non-ASCII character '\\xc3' in file /var/mobile/Library/Preferences/XBMC/addons/plugin.audio.dr.dk.netradio/addon.py on line 18, but no encoding declared; see http://www.python.org/peps/pep-0263.html for details", ('/var/mobile/Library/Preferences/XBMC/addons/plugin.audio.dr.dk.netradio/addon.py', 18, 0, None))
  89. 17:27:38 T:156037120 M:115163136 ERROR: SyntaxError: ("Non-ASCII character '\\xc3' in file /var/mobile/Library/Preferences/XBMC/addons/plugin.audio.dr.dk.netradio/addon.py on line 18, but no encoding declared; see http://www.python.org/peps/pep-0263.html for details", ('/var/mobile/Library/Preferences/XBMC/addons/plugin.audio.dr.dk.netradio/addon.py', 18, 0, None))
  90. 17:27:38 T:92057600 M:115163136 ERROR: GetDirectory - Error getting plugin://plugin.audio.dr.dk.netradio/
  91. 17:27:38 T:92057600 M:115163136 ERROR: CGUIMediaWindow::GetDirectory(plugin://plugin.audio.dr.dk.netradio/) failed
  92. 17:27:48 T:804675584 M:111366144 WARNING: CreateLoader - Unsupported protocol(addons) in addons://more/executable.tbn
  93. 17:27:49 T:92057600 M:111718400 ERROR: ClearBlock: Trying to clear non existent block /var/mobile/Library/Preferences/XBMC/addons/script.xbmc.debug.log
  94. 17:27:54 T:155758592 M:115236864 NOTICE: -->Python Interpreter Initialized<--
  95. 17:28:03 T:155758592 M:108032000 ERROR: Exception in python script's onAction
  96. 17:28:03 T:155758592 M:108027904 NOTICE: Traceback (most recent call last):
  97. 17:28:03 T:155758592 M:108027904 NOTICE: File "/var/mobile/Library/Preferences/XBMC/addons/script.xbmc.debug.log/resources/lib/gui.py", line 239, in onAction
  98. 17:28:03 T:155758592 M:108023808 NOTICE: if ( action.getId() in CANCEL_DIALOG):
  99. 17:28:03 T:155758592 M:108023808 NOTICE: File "/var/mobile/Library/Preferences/XBMC/addons/script.xbmc.debug.log/resources/lib/gui.py", line 27, in onInit
  100. 17:28:03 T:155758592 M:108023808 NOTICE: log_size = os.path.getsize(self.log)
  101. 17:28:03 T:155758592 M:108023808 NOTICE: File "/Applications/XBMC.frappliance/Frameworks/usr/lib/python2.6/genericpath.py", line 49, in getsize
  102. 17:28:03 T:155758592 M:108023808 NOTICE: return os.stat(filename).st_size
  103. 17:28:03 T:155758592 M:108023808 NOTICE: OSError
  104. 17:28:03 T:155758592 M:108023808 NOTICE: :
  105. 17:28:03 T:155758592 M:108023808 NOTICE: [Errno 2] No such file or directory: '/var/mobile/Library/Logs/xbmc.log'
  106. 17:29:32 T:155758592 M:107945984 ERROR: Exception in python script's onAction
  107. 17:29:32 T:155758592 M:107945984 NOTICE: Traceback (most recent call last):
  108. 17:29:32 T:155758592 M:107945984 NOTICE: File "/var/mobile/Library/Preferences/XBMC/addons/script.xbmc.debug.log/resources/lib/gui.py", line 239, in onAction
  109. 17:29:32 T:155758592 M:107945984 NOTICE: if ( action.getId() in CANCEL_DIALOG):
  110. 17:29:32 T:155758592 M:107945984 NOTICE: File "/var/mobile/Library/Preferences/XBMC/addons/script.xbmc.debug.log/resources/lib/gui.py", line 209, in onClick
  111. 17:29:32 T:155758592 M:107945984 NOTICE: msg = self.copyToFolder()
  112. 17:29:32 T:155758592 M:107945984 NOTICE: File "/var/mobile/Library/Preferences/XBMC/addons/script.xbmc.debug.log/resources/lib/gui.py", line 154, in copyToFolder
  113. 17:29:32 T:155758592 M:107945984 NOTICE: have_log, msg = self.collect_logs(new_log)
  114. 17:29:32 T:155758592 M:107945984 NOTICE: File "/var/mobile/Library/Preferences/XBMC/addons/script.xbmc.debug.log/resources/lib/gui.py", line 183, in collect_logs
  115. 17:29:32 T:155758592 M:107945984 NOTICE: outfile.write(open(log, 'r'+'b').read())
  116. 17:29:32 T:155758592 M:107945984 NOTICE: IOError
  117. 17:29:32 T:155758592 M:107945984 NOTICE: :
  118. 17:29:32 T:155758592 M:107945984 NOTICE: [Errno 2] No such file or directory: '/var/mobile/Library/Logs/xbmc.log'
  119. 17:29:47 T:92057600 M:111165440 WARNING: CUtil::GetMatchingSource... no matching source found for [Addons]
  120. 17:29:50 T:152596480 M:115064832 NOTICE: -->Python Interpreter Initialized<--
  121. 17:29:50 T:152596480 M:115064832 ERROR: Error Type: <type 'exceptions.SyntaxError'>
  122. 17:29:50 T:152596480 M:115064832 ERROR: Error Contents: ("Non-ASCII character '\\xc3' in file /var/mobile/Library/Preferences/XBMC/addons/plugin.audio.dr.dk.netradio/addon.py on line 18, but no encoding declared; see http://www.python.org/peps/pep-0263.html for details", ('/var/mobile/Library/Preferences/XBMC/addons/plugin.audio.dr.dk.netradio/addon.py', 18, 0, None))
  123. 17:29:50 T:152596480 M:115064832 ERROR: SyntaxError: ("Non-ASCII character '\\xc3' in file /var/mobile/Library/Preferences/XBMC/addons/plugin.audio.dr.dk.netradio/addon.py on line 18, but no encoding declared; see http://www.python.org/peps/pep-0263.html for details", ('/var/mobile/Library/Preferences/XBMC/addons/plugin.audio.dr.dk.netradio/addon.py', 18, 0, None))
  124. 17:29:50 T:92057600 M:115064832 ERROR: GetDirectory - Error getting plugin://plugin.audio.dr.dk.netradio/
  125. 17:29:50 T:92057600 M:115064832 ERROR: CGUIMediaWindow::GetDirectory(plugin://plugin.audio.dr.dk.netradio/) failed
  126. 17:29:52 T:152596480 M:114909184 NOTICE: -->Python Interpreter Initialized<--
  127. 17:29:52 T:152596480 M:114909184 ERROR: Error Type: <type 'exceptions.SyntaxError'>
  128. 17:29:52 T:152596480 M:114909184 ERROR: Error Contents: ("Non-ASCII character '\\xc3' in file /var/mobile/Library/Preferences/XBMC/addons/plugin.audio.dr.dk.netradio/addon.py on line 18, but no encoding declared; see http://www.python.org/peps/pep-0263.html for details", ('/var/mobile/Library/Preferences/XBMC/addons/plugin.audio.dr.dk.netradio/addon.py', 18, 0, None))
  129. 17:29:52 T:152596480 M:114909184 ERROR: SyntaxError: ("Non-ASCII character '\\xc3' in file /var/mobile/Library/Preferences/XBMC/addons/plugin.audio.dr.dk.netradio/addon.py on line 18, but no encoding declared; see http://www.python.org/peps/pep-0263.html for details", ('/var/mobile/Library/Preferences/XBMC/addons/plugin.audio.dr.dk.netradio/addon.py', 18, 0, None))
  130. 17:29:52 T:92057600 M:114909184 ERROR: GetDirectory - Error getting plugin://plugin.audio.dr.dk.netradio/
  131. 17:29:52 T:92057600 M:114909184 ERROR: CGUIMediaWindow::GetDirectory(plugin://plugin.audio.dr.dk.netradio/) failed
  132. 17:29:54 T:156921856 M:114356224 NOTICE: -->Python Interpreter Initialized<--
  133. 17:29:55 T:156921856 M:113582080 NOTICE: Mode: None
  134. 17:29:55 T:156921856 M:113582080 NOTICE: URL: None
  135. 17:29:55 T:156921856 M:113582080 NOTICE: Name: None
  136. 17:29:56 T:92057600 M:113582080 ERROR: ClearBlock: Trying to clear non existent block /var/mobile/Library/Preferences/XBMC/addons/script.xbmc.debug.log
RAW Paste Data